Retour au catalogue

STARLINK-34309

ActifCommunicationsSSO
NORAD 64167·PAYLOAD·🇺🇸 United States

Lancé May 27, 2025 depuis Vandenberg Space Force Base

Loading…

Prochains Passages (prochaines 24 heures)

TLE

FraisSource: CelesTrak SupGP

Époque: Sep 15, 2026, 02:39 UTC

1 64167C 25112X   26258.11090278  .00019183  00000+0  59545-3 0  2586
2 64167  97.2832 305.2797 0001027  99.2240 245.1726 15.33431380    15

Suivez STARLINK-34309 en temps réel avec AllMySat

Download on the App Store